ONEWEB-0012 1 44057U 19010A 21019.25001157 .00003350 00000-0 80773-2 0 9993 2 44057 87.9162 291.2239 0001725 74.5674 11.5040 13.21812546 91397 ONEWEB-0010 1 44058U 19010B 21019.25001157 .00003352 00000-0 80829-2 0 9998 2 44058 87.9165 291.2297 0001546 79.7044 358.7739 13.21818655 91448 ONEWEB-0008 1 44059U 19010C 21019.25001157 .00003397 00000-0 81929-2 0 9990 2 44059 87.9169 291.2371 0001696 76.1697 17.6188 13.21812021 91537 ONEWEB-0007 1 44060U 19010D 21019.25001157 .00003350 00000-0 80780-2 0 9995 2 44060 87.9164 291.2255 0001913 78.5077 352.6476 13.21813493 91564 ONEWEB-0006 1 44061U 19010E 21019.25001157 .00003391 00000-0 81775-2 0 9996 2 44061 87.9170 291.2364 0001692 76.7243 347.0189 13.21812790 91605 ONEWEB-0011 1 44062U 19010F 21019.25001157 .00003450 00000-0 83191-2 0 9997 2 44062 87.9175 291.2461 0001935 68.0802 348.3195 13.21817758 91604 ONEWEB-0013 1 45131U 20008A 21019.00001157 .00034528 00000-0 10002+0 0 9995 2 45131 87.9123 84.3165 0001303 102.4777 346.6501 13.09323015 1719 ONEWEB-0017 1 45132U 20008B 21019.25001157 -.00042796 00000-0 -12316+0 0 9991 2 45132 87.8808 68.9197 0002173 89.9506 306.8223 13.10395026 50083 ONEWEB-0020 1 45133U 20008C 21019.25001157 -.00044866 00000-0 -12915+0 0 9997 2 45133 87.8794 68.9062 0001248 104.2638 79.3768 13.10392993 50477 ONEWEB-0021 1 45134U 20008D 21019.25001157 -.00044316 00000-0 -12757+0 0 9992 2 45134 87.8698 68.9784 0001448 104.4059 5.7610 13.10387903 50871 ONEWEB-0022 1 45135U 20008E 21019.25001157 -.00042304 00000-0 -12173+0 0 9990 2 45135 87.8815 68.9007 0002362 92.4503 260.1128 13.10399653 50457 ONEWEB-0023 1 45136U 20008F 21019.25001157 -.00043037 00000-0 -12386+0 0 9991 2 45136 87.8723 69.0041 0001024 74.8771 336.5862 13.10393857 50195 ONEWEB-0024 1 45137U 20008G 21019.25001157 -.00044750 00000-0 -12883+0 0 9997 2 45137 87.8740 68.9812 0001306 97.8578 92.8437 13.10385395 50358 ONEWEB-0025 1 45138U 20008H 21019.25001157 -.00044163 00000-0 -12712+0 0 9997 2 45138 87.8787 68.9872 0001582 93.9521 8.9141 13.10391252 50671 ONEWEB-0026 1 45139U 20008J 21019.00001157 -.01287888 00000-0 -57447+0 0 9999 2 45139 87.7116 54.9965 0023783 112.1537 278.7331 14.26285882 1744 ONEWEB-0028 1 45140U 20008K 21019.25001157 -.00044875 00000-0 -12918+0 0 9998 2 45140 87.8791 68.9302 0001437 96.3671 50.5557 13.10391469 49840 ONEWEB-0032 1 45141U 20008L 21019.25001157 -.00042649 00000-0 -12274+0 0 9991 2 45141 87.8784 69.0085 0001616 99.8308 289.4596 13.10393651 50525 ONEWEB-0033 1 45142U 20008M 21019.25001157 -.00044915 00000-0 -12930+0 0 9999 2 45142 87.8764 68.9517 0001705 101.1814 53.0483 13.10389025 50463 ONEWEB-0035 1 45143U 20008N 21019.25001157 -.00042338 00000-0 -12183+0 0 9997 2 45143 87.8762 68.9527 0001745 94.3979 265.6232 13.10399409 50181 ONEWEB-0036 1 45144U 20008P 21019.25001157 -.00042914 00000-0 -12350+0 0 9994 2 45144 87.8804 68.8953 0001481 88.1151 315.9076 13.10397004 50589 ONEWEB-0038 1 45145U 20008Q 21019.25001157 -.01391060 00000-0 -80371+0 0 9993 2 45145 87.6538 54.8605 0022514 152.9636 357.9583 14.12808617 51994 ONEWEB-0039 1 45146U 20008R 21019.25001157 -.00044707 00000-0 -12869+0 0 9993 2 45146 87.8790 68.9337 0001340 124.9906 7.2435 13.10392276 50309 ONEWEB-0040 1 45147U 20008S 21019.25001157 -.00044912 00000-0 -12929+0 0 9999 2 45147 87.8790 68.9790 0001427 108.8752 60.0158 13.10388810 50004 ONEWEB-0041 1 45148U 20008T 21019.25001157 -.01448944 00000-0 -68994+0 0 9997 2 45148 87.7035 54.9623 0019205 128.3783 147.5989 14.22755471 52594 ONEWEB-0043 1 45149U 20008U 21019.25001157 -.00044928 00000-0 -12933+0 0 9993 2 45149 87.8693 68.9692 0000955 110.2597 51.3376 13.10392224 50311 ONEWEB-0044 1 45150U 20008V 21019.25001157 -.00042553 00000-0 -12245+0 0 9993 2 45150 87.8715 68.9799 0001327 108.0210 274.0349 13.10399749 50602 ONEWEB-0045 1 45151U 20008W 21019.25001157 -.01385130 00000-0 -75525+0 0 9996 2 45151 87.6472 54.9017 0017592 156.8953 24.0852 14.15980423 52015 ONEWEB-0047 1 45152U 20008X 21019.25001157 -.00043177 00000-0 -12426+0 0 9999 2 45152 87.8681 68.9846 0001608 98.0440 320.7200 13.10396558 50345 ONEWEB-0048 1 45153U 20008Y 21019.25001157 -.00043667 00000-0 -12569+0 0 9992 2 45153 87.8666 68.9786 0001390 92.2080 348.6069 13.10389792 49933 ONEWEB-0049 1 45154U 20008Z 21019.25001157 -.00043518 00000-0 -12526+0 0 9991 2 45154 87.8793 68.9343 0001438 79.4822 353.9886 13.10389316 50174 ONEWEB-0051 1 45155U 20008AA 21019.25001157 -.01439971 00000-0 -63836+0 0 9995 2 45155 87.7079 54.9574 0023903 117.3806 134.7772 14.26425472 52710 ONEWEB-0052 1 45156U 20008AB 21019.25001157 -.00043864 00000-0 -12626+0 0 9998 2 45156 87.8788 68.9325 0001101 46.0472 42.0896 13.10388387 50060 ONEWEB-0053 1 45157U 20008AC 21019.25001157 -.00044905 00000-0 -12926+0 0 9999 2 45157 87.8793 68.9344 0001341 107.8787 68.3022 13.10394842 50031 ONEWEB-0054 1 45158U 20008AD 21019.25001157 -.00042394 00000-0 -12200+0 0 9995 2 45158 87.8810 68.9431 0001778 103.2278 264.0295 13.10395430 50141 ONEWEB-0056 1 45159U 20008AE 21019.25001157 -.00044017 00000-0 -12670+0 0 9991 2 45159 87.8795 68.9360 0001554 91.3498 4.2147 13.10389908 50297 ONEWEB-0057 1 45160U 20008AF 21019.00001157 .00043553 00000-0 12419+0 0 9999 2 45160 87.8804 68.9523 0001384 104.6738 222.8276 13.10347506 1696 ONEWEB-0058 1 45161U 20008AG 21019.25001157 -.00045414 00000-0 -13073+0 0 9994 2 45161 87.8613 68.9575 0001530 109.2575 15.7834 13.10395581 50537 ONEWEB-0059 1 45162U 20008AH 21019.25001157 -.00044790 00000-0 -12894+0 0 9991 2 45162 87.8705 68.9669 0001670 109.6406 29.8964 13.10387978 50425 ONEWEB-0062 1 45163U 20008AJ 21019.25001157 -.00042473 00000-0 -12222+0 0 9993 2 45163 87.8787 68.9366 0001466 87.6689 286.9564 13.10399868 50299 ONEWEB-0065 1 45164U 20008AK 21019.25001157 -.00044465 00000-0 -12799+0 0 9996 2 45164 87.8708 68.9861 0001684 98.2292 19.3089 13.10392503 49986 ONEWEB-0066 1 45424U 20020A 21019.25001157 -.00043315 00000-0 -12279+0 0 9995 2 45424 87.8854 53.7235 0002236 126.8395 125.6251 13.11436081 43842 ONEWEB-0067 1 45425U 20020B 21019.25001157 -.00039695 00000-0 -11249+0 0 9998 2 45425 87.8848 53.7396 0001669 102.4060 318.9783 13.11435054 43893 ONEWEB-0080 1 45426U 20020C 21019.00001157 .00045534 00000-0 12785+0 0 9995 2 45426 87.8844 53.7656 0002342 102.5275 131.0716 13.11394711 1705 ONEWEB-0090 1 45427U 20020D 21019.00001157 .00045519 00000-0 12781+0 0 9995 2 45427 87.8857 53.7774 0001707 99.7261 82.6204 13.11394915 1717 ONEWEB-0061 1 45428U 20020E 21019.25001157 -.00318175 00000-0 -92540+0 0 9997 2 45428 87.8853 53.7040 0001554 100.9567 327.6210 13.11690056 43770 ONEWEB-0081 1 45429U 20020F 21019.00001157 .00066911 00000-0 18738+0 0 9994 2 45429 87.8869 53.7018 0024992 359.8121 131.0473 13.11316683 1701 ONEWEB-0069 1 45430U 20020G 21019.00001157 .00045510 00000-0 12778+0 0 9996 2 45430 87.8852 53.7773 0001686 99.7230 75.2162 13.11396558 1713 ONEWEB-0031 1 45431U 20020H 21019.00001157 .00045426 00000-0 12755+0 0 9998 2 45431 87.8840 53.7811 0001639 94.7146 168.2773 13.11394280 1691 ONEWEB-0027 1 45432U 20020J 21019.00001157 .00050162 00000-0 51825-2 0 9996 2 45432 87.5635 43.3010 0024043 282.8372 258.6312 14.89693806 1754 ONEWEB-0064 1 45433U 20020K 21019.00001157 .00045387 00000-0 12745+0 0 9995 2 45433 87.8845 53.7849 0001577 96.4858 173.7989 13.11389022 1709 ONEWEB-0018 1 45434U 20020L 21019.00001157 .00045482 00000-0 12772+0 0 9992 2 45434 87.8852 53.7635 0001636 96.7259 70.7935 13.11386674 1713 ONEWEB-0083 1 45435U 20020M 21019.00001157 .00045536 00000-0 12786+0 0 9998 2 45435 87.8847 53.7695 0001600 96.0589 108.2610 13.11392226 1700 ONEWEB-0095 1 45436U 20020N 21019.00001157 .00054076 00000-0 15172+0 0 9990 2 45436 87.8843 53.7728 0001706 96.8944 158.7638 13.11386137 1696 ONEWEB-0092 1 45437U 20020P 21019.00001157 .00044745 00000-0 12564+0 0 9995 2 45437 87.8863 53.7038 0001841 72.2816 264.2292 13.11398057 1692 ONEWEB-0085 1 45438U 20020Q 21019.00001157 .00045547 00000-0 12789+0 0 9996 2 45438 87.8845 53.7857 0001690 97.9606 128.4468 13.11393896 1710 ONEWEB-0096 1 45439U 20020R 21019.00001157 .00045539 00000-0 12788+0 0 9997 2 45439 87.8847 53.7755 0001797 83.7373 113.1639 13.11387271 1702 ONEWEB-0037 1 45440U 20020S 21019.00001157 .00045485 00000-0 12772+0 0 9992 2 45440 87.8840 53.7906 0001631 68.4779 179.9158 13.11391796 1705 ONEWEB-0042 1 45441U 20020T 21019.00001157 .00045066 00000-0 12654+0 0 9997 2 45441 87.8847 53.7784 0001756 102.7517 204.4125 13.11395545 1701 ONEWEB-0098 1 45442U 20020U 21019.00001157 .00045531 00000-0 12784+0 0 9999 2 45442 87.8841 53.7841 0001775 105.5493 135.4785 13.11395411 1702 ONEWEB-0055 1 45443U 20020V 21019.00001157 .00045168 00000-0 12683+0 0 9994 2 45443 87.8819 53.7303 0001901 99.4262 192.9803 13.11393478 1707 ONEWEB-0093 1 45444U 20020W 21019.25001157 -.00063947 00000-0 -18156+0 0 9990 2 45444 87.8858 53.7273 0009698 14.4526 201.8740 13.11460606 43847 ONEWEB-0029 1 45445U 20020X 21019.00001157 .00045124 00000-0 12670+0 0 9994 2 45445 87.8848 53.7577 0001848 95.2420 204.5285 13.11397842 1707 ONEWEB-0068 1 45446U 20020Y 21019.00001157 .00045410 00000-0 12750+0 0 9992 2 45446 87.8855 53.7775 0001570 117.7984 27.7622 13.11397249 1715 ONEWEB-0046 1 45447U 20020Z 21019.00001157 .00045475 00000-0 12768+0 0 9993 2 45447 87.8854 53.7800 0001547 95.2922 64.9333 13.11397449 1703 ONEWEB-0063 1 45448U 20020AA 21019.00001157 .00044995 00000-0 12634+0 0 9992 2 45448 87.8843 53.7999 0001103 90.5741 223.6855 13.11397819 1700 ONEWEB-0019 1 45449U 20020AB 21019.00001157 .00045395 00000-0 12746+0 0 9992 2 45449 87.8861 53.7493 0001848 94.2334 44.0503 13.11395816 1716 ONEWEB-0094 1 45450U 20020AC 21019.00001157 .00049433 00000-0 50022-2 0 9993 2 45450 87.5759 43.5352 0024493 286.1962 143.7817 14.90523955 1756 ONEWEB-0087 1 45451U 20020AD 21019.00001157 .00045273 00000-0 12711+0 0 9992 2 45451 87.8851 53.7757 0001827 95.4681 189.5358 13.11400319 1703 ONEWEB-0082 1 45452U 20020AE 21019.00001157 .00045308 00000-0 12722+0 0 9994 2 45452 87.8831 53.7529 0001769 104.9399 172.7968 13.11393980 1690 ONEWEB-0050 1 45453U 20020AF 21019.00001157 .00049356 00000-0 44840-2 0 9991 2 45453 87.5410 42.4966 0023397 281.5680 14.1666 14.94824175 1788 ONEWEB-0034 1 45454U 20020AG 21019.00001157 .00045533 00000-0 12786+0 0 9996 2 45454 87.8843 53.7725 0001439 92.1277 126.8924 13.11387951 1705 ONEWEB-0060 1 45455U 20020AH 21019.00001157 .00045530 00000-0 12784+0 0 9992 2 45455 87.8850 53.7627 0001647 96.4575 93.1749 13.11394102 1701 ONEWEB-0086 1 45456U 20020AJ 21019.00001157 .00045316 00000-0 12723+0 0 9998 2 45456 87.8858 53.7622 0001558 94.6342 28.8344 13.11401038 1712 ONEWEB-0088 1 45457U 20020AK 21019.00001157 .00045564 00000-0 12795+0 0 9993 2 45457 87.8841 53.7992 0001469 94.7029 116.9895 13.11386846 1730 ONEWEB-0102 1 47258U 20100A 21018.91667824 -.01365383 00000-0 -86625-1 0 9993 2 47258 87.4439 28.6040 0009481 154.3015 261.8514 15.11920841 1767 ONEWEB-0109 1 47259U 20100B 21018.91667824 .00068855 00000-0 67929-2 0 9992 2 47259 87.3427 28.7176 0009259 151.9125 53.9568 14.91626750 1750 ONEWEB-0110 1 47260U 20100C 21018.91667824 -.01379038 00000-0 -89222-1 0 9994 2 47260 87.4394 28.6000 0009088 152.7427 234.3196 15.11252406 1764 ONEWEB-0111 1 47261U 20100D 21018.91667824 -.01302802 00000-0 -14998+0 0 9996 2 47261 87.3418 28.7362 0009774 153.2875 77.3306 14.89141836 1753 ONEWEB-0114 1 47262U 20100E 21018.91667824 -.01312967 00000-0 -15364+0 0 9998 2 47262 87.3202 28.7208 0010198 143.2684 30.5221 14.88505596 1767 ONEWEB-0117 1 47263U 20100F 21019.16667824 -.01415135 00000-0 -15468+0 0 9993 2 47263 87.3485 28.6257 0010983 161.6944 173.4075 14.91482430 4828 ONEWEB-0118 1 47264U 20100G 21018.91667824 -.01352517 00000-0 -80874-1 0 9995 2 47264 87.4499 28.5719 0013166 149.8432 56.4772 15.14458319 1762 ONEWEB-0119 1 47265U 20100H 21018.91667824 -.01367036 00000-0 -89973-1 0 9997 2 47265 87.4297 28.6020 0012964 147.6945 101.3573 15.10553108 1762 ONEWEB-0120 1 47266U 20100J 21018.91667824 -.01374095 00000-0 -85119-1 0 9999 2 47266 87.4431 28.5918 0009905 155.7213 300.8877 15.12788552 1776 ONEWEB-0121 1 47267U 20100K 21018.91667824 -.01336071 00000-0 -14150+0 0 9997 2 47267 87.3583 28.7245 0011760 157.9068 320.2566 14.92523656 1942 ONEWEB-0122 1 47268U 20100L 21018.91667824 -.01302367 00000-0 -15429+0 0 9999 2 47268 87.3335 28.7455 0009281 147.8767 359.9527 14.87992125 1761 ONEWEB-0123 1 47269U 20100M 21019.16667824 -.01495353 00000-0 -10397+0 0 9995 2 47269 87.4344 28.5293 0008777 147.8926 90.5545 15.08908994 4853 ONEWEB-0124 1 47270U 20100N 21018.91667824 -.01387635 00000-0 -13316+0 0 9996 2 47270 87.4224 28.7025 0010347 138.7002 310.4010 14.96529803 1758 ONEWEB-0125 1 47271U 20100P 21016.82515572 -.00407610 00000-0 -24802-1 0 9996 2 47271 87.4017 29.3573 0009377 139.9122 220.2812 15.12456137 4480 ONEWEB-0126 1 47272U 20100Q 21019.16667824 -.01491928 00000-0 -96076-1 0 9993 2 47272 87.4395 28.5142 0011028 138.6860 132.7733 15.11640220 4840 ONEWEB-0127 1 47273U 20100R 21018.91667824 -.01333459 00000-0 -80270-1 0 9999 2 47273 87.4486 28.5894 0012679 151.4352 28.6489 15.14182139 1771 ONEWEB-0128 1 47274U 20100S 21018.91667824 -.01339457 00000-0 -72673-1 0 9992 2 47274 87.4426 28.5411 0013727 131.6309 248.4706 15.17814776 1774 ONEWEB-0129 1 47275U 20100T 21018.91667824 -.01393871 00000-0 -10943+0 0 9993 2 47275 87.4131 28.6545 0011978 158.0942 54.6837 15.04157379 1754 ONEWEB-0130 1 47276U 20100U 21018.91667824 -.01375819 00000-0 -98858-1 0 9999 2 47276 87.4450 28.6400 0009667 137.1623 77.9903 15.07426341 1769 ONEWEB-0131 1 47277U 20100V 21019.16667824 -.01500131 00000-0 -10310+0 0 9990 2 47277 87.4328 28.5199 0008793 146.0788 113.7471 15.09340978 4842 ONEWEB-0132 1 47278U 20100W 21018.91667824 -.01371505 00000-0 -12617+0 0 9996 2 47278 87.3697 28.6905 0008998 158.1525 71.5439 14.98138503 1777 ONEWEB-0133 1 47279U 20100X 21018.91667824 -.01336226 00000-0 -77289-1 0 9996 2 47279 87.4588 28.5772 0013706 148.9277 96.0269 15.15576680 1767 ONEWEB-0134 1 47280U 20100Y 21019.16667824 -.01486485 00000-0 -93168-1 0 9993 2 47280 87.4521 28.5036 0012320 154.3740 269.6230 15.12576945 4856 ONEWEB-0135 1 47281U 20100Z 21018.91667824 -.01362307 00000-0 -75525-1 0 9999 2 47281 87.4491 28.5455 0013872 133.6590 222.4875 15.17119516 1765 ONEWEB-0136 1 47282U 20100AA 21019.16667824 -.01492038 00000-0 -10747+0 0 9996 2 47282 87.4331 28.5311 0009331 138.6492 33.0056 15.07603904 4848 ONEWEB-0137 1 47283U 20100AB 21018.91667824 -.01329174 00000-0 -13130+0 0 9998 2 47283 87.3756 28.7153 0012274 141.5690 159.7194 14.95233742 1782 ONEWEB-0138 1 47284U 20100AC 21018.91667824 -.01352560 00000-0 -13815+0 0 9994 2 47284 87.3457 28.6679 0012667 152.9803 71.4146 14.93978139 1771 ONEWEB-0139 1 47285U 20100AD 21018.91667824 -.01333489 00000-0 -78627-1 0 9998 2 47285 87.4546 28.5730 0013900 135.1627 133.6821 15.14891202 1755 ONEWEB-0140 1 47286U 20100AE 21018.91667824 -.01375125 00000-0 -10896+0 0 9994 2 47286 87.3917 28.6487 0010235 160.7692 24.1717 15.03793853 1750 ONEWEB-0141 1 47287U 20100AF 21018.91667824 -.01385297 00000-0 -11414+0 0 9993 2 47287 87.3851 28.6573 0013013 144.3776 51.9150 15.02310746 1756 ONEWEB-0142 1 47288U 20100AG 21019.16667824 -.01459681 00000-0 -10256+0 0 9994 2 47288 87.4392 28.5445 0009013 142.2088 67.8952 15.08443484 4844 ONEWEB-0143 1 47289U 20100AH 21017.97287939 -.00415323 00000-0 -29692-1 0 9997 2 47289 87.3907 28.9917 0010884 165.1890 194.9668 15.06611991 4650 ONEWEB-0144 1 47290U 20100AJ 21019.16667824 -.01475491 00000-0 -13269+0 0 9991 2 47290 87.3705 28.5935 0010020 159.3655 78.8468 14.99246469 4811 ONEWEB-0145 1 47291U 20100AK 21018.91667824 -.01356896 00000-0 -77511-1 0 9993 2 47291 87.4426 28.5529 0014038 135.7022 164.8727 15.16059272 1759 ONEWEB-0146 1 47292U 20100AL 21019.16667824 -.01488459 00000-0 -11520+0 0 9999 2 47292 87.4149 28.5637 0013185 151.3632 185.4759 15.04887141 4821 ONEWEB-0147 1 47293U 20100AM 21018.91667824 -.01382214 00000-0 -12172+0 0 9998 2 47293 87.3862 28.6414 0011420 138.4692 64.7501 14.99805788 1763